Miscellaneous Local Product
Issued by NWS Hastings, NE

Home | Current Version | Previous Version | Text Only | Print | Product List | Glossary Off
Versions: 1 2 3 4 5 6 7 8 9 10 11 12 13 14 15 16 17 18 19 20 21 22 23 24 25 26 27 28 29 30 31 32 33 34 35 36 37 38 39 40 41 42 43 44 45 46 47 48 49 50

000
AXUS43 KGID 190302
MISGRI

GID CWA HOURLY WEATHER ROUNDUP
NATIONAL WEATHER SERVICE HASTINGS NE
1000 PM CDT SAT APR 18 2015

NOTE: "FAIR" INDICATES FEW OR NO CLOUDS BELOW 12,000 FEET WITH NO
SIGNIFICANT WEATHER AND/OR OBSTRUCTIONS TO VISIBILITY.

...SOUTH CENTRAL NEBRASKA...

CITY           SKY/WX    TMP DP  RH WIND       PRES   REMARKS
GRAND ISLAND   LGT RAIN  54  48  80 SW21G29   29.83F
HASTINGS       LGT RAIN  53  49  86 NW9       29.86R
KEARNEY        CLOUDY    54  46  76 E16       29.86R
ORD            CLOUDY    61  56  83 E13G21    29.75F
YORK           CLOUDY    57  50  77 W12       29.84R
AURORA         LGT RAIN  55  50  85 W16       29.83R
LEXINGTON      HVY RAIN  54  49  85 E6G13     29.85R
HOLDREGE       LGT RAIN  53  48  85 NE10      29.84R
HEBRON         RAIN      56  51  84 S14       29.83S

...NEBRASKA PANHANDLE...

CITY           SKY/WX    TMP DP  RH WIND       PRES   REMARKS
CHADRON        CLOUDY    48  44  86 N9        29.95R
ALLIANCE       CLOUDY    47  42  83 N14       29.91R
SCOTTSBLUFF    CLOUDY    49 N/A N/A NW12      29.94R
SIDNEY         LGT RAIN  46  40  79 N13G24    29.91R

...WESTERN AND NORTH CENTRAL NEBRASKA...

CITY           SKY/WX    TMP DP  RH WIND       PRES   REMARKS
VALENTINE      CLOUDY    54  49  83 N8        29.86R
AINSWORTH      CLOUDY    55  53  94 N7        29.85R
ONEILL         CLOUDY    57  56  95 N6        29.81S
BROKEN BOW     CLOUDY    60  49  66 S23G31    29.82R
IMPERIAL       CLOUDY    50  43  77 N15       29.83R
NORTH PLATTE   RAIN      51  46  83 CALM      29.87R
MCCOOK         CLOUDY    53  47  79 E7        29.81R

...EASTERN NEBRASKA...

CITY           SKY/WX    TMP DP  RH WIND       PRES   REMARKS
NORFOLK        NOT AVBL
SO SIOUX CITY  CLOUDY    57  54  89 E7        29.81F
TEKAMAH        MOCLDY    56  54  93 S7        29.82S
COLUMBUS       CLOUDY    61  52  72 SE9       29.84R
ALBION         MOCLDY    58  55  87 SE8       29.80S
OMAHA EPPLEY   MOCLDY    55  54  96 SE7       29.81F
OFFUTT AFB     MOCLDY    56  55  95 SE7       29.81F
MILLARD        MOCLDY    58  55  91 SE6       29.82F
LINCOLN        MOCLDY    60  56  86 SE8       29.83R
NEBRASKA CITY  FAIR      58  58  99 SE5       29.82F
BEATRICE       RAIN      58  55  89 CALM      29.83R
FALLS CITY     MOCLDY    57  55  93 CALM      29.82S

...NORTHERN KANSAS...

CITY           SKY/WX    TMP DP  RH WIND       PRES   REMARKS
GOODLAND       MOCLDY    46  43  89 NW9       29.81S
HILL CITY      CLOUDY    53  47  79 E6        29.81R
NORTON         CLEAR     54  46  76 E5        29.80R
PHILLIPSBURG   CLOUDY    57  48  72 E9        29.79F
SMITH CENTER   CLOUDY    52  46  82 NW7       29.84R
BELOIT         CLEAR     52  50  93 E13       29.78S
HAYS           CLOUDY    52  43  71 CALM      29.80F
RUSSELL        CLOUDY    53  48  83 NW8       29.78R
CONCORDIA      LGT RAIN  53  52  96 E6        29.83F
SALINA         LGT RAIN  56  49  77 E16       29.76F
TOPEKA         PTCLDY    60  57  89 CALM      29.83S



USA.gov is the U.S. government's official web portal to all federal, state and local government web resources and services.